AVA2824 SKBO-SKCL

Flight info

Callsign AVA2824
Flight time 0h 36m
Altitude 24000
Route KAMIS6A KAMIS W16 GIR R564 OREGA OREGA2C
Aircraft A320/M-SDE3FGHIRWY/LB1

Departure

Time 2026-04-26 22:57
Airport El Dorado International Airport (SKBO)

Arrival

Time 2026-04-26 23:33
Airport Alfonso Bonilla Aragon International Airport (SKCL)
Time Latitude Longitude Altitude Speed Heading
2026-04-26 22:16 4.69911 -74.14610 8370 ft 0 kts 121°
2026-04-26 22:42 4.69922 -74.14626 8371 ft 4 kts 124°
2026-04-26 22:42 4.69934 -74.14646 8370 ft 4 kts 129°
2026-04-26 22:42 4.69953 -74.14659 8370 ft 4 kts 185°
2026-04-26 22:43 4.69977 -74.14650 8371 ft 4 kts 215°
2026-04-26 22:43 4.69982 -74.14647 8371 ft 4 kts 217°
2026-04-26 22:43 4.69961 -74.14663 8370 ft 4 kts 217°
2026-04-26 22:43 4.69939 -74.14679 8370 ft 4 kts 217°
2026-04-26 22:44 4.69917 -74.14695 8370 ft 3 kts 217°
2026-04-26 22:44 4.69915 -74.14697 8370 ft 0 kts 217°
2026-04-26 22:49 4.69912 -74.14700 8370 ft 3 kts 217°
2026-04-26 22:49 4.69887 -74.14728 8371 ft 5 kts 246°
2026-04-26 22:49 4.69887 -74.14759 8370 ft 6 kts 286°
2026-04-26 22:49 4.69923 -74.14812 8370 ft 11 kts 309°
2026-04-26 22:50 4.69938 -74.14878 8371 ft 10 kts 243°
2026-04-26 22:50 4.69889 -74.14921 8370 ft 8 kts 218°
2026-04-26 22:50 4.69861 -74.14957 8370 ft 6 kts 253°
2026-04-26 22:50 4.69880 -74.15007 8371 ft 9 kts 306°
2026-04-26 22:51 4.69921 -74.15063 8370 ft 11 kts 306°
2026-04-26 22:51 4.69967 -74.15125 8371 ft 12 kts 306°
2026-04-26 22:51 4.70018 -74.15191 8371 ft 12 kts 307°
2026-04-26 22:51 4.70073 -74.15263 8371 ft 14 kts 307°
2026-04-26 22:52 4.70133 -74.15342 8370 ft 15 kts 307°
2026-04-26 22:52 4.70198 -74.15429 8370 ft 16 kts 307°
2026-04-26 22:52 4.70268 -74.15520 8370 ft 17 kts 307°
2026-04-26 22:52 4.70343 -74.15619 8370 ft 18 kts 307°
2026-04-26 22:53 4.70420 -74.15725 8370 ft 19 kts 307°
2026-04-26 22:53 4.70502 -74.15831 8370 ft 20 kts 308°
2026-04-26 22:53 4.70589 -74.15945 8370 ft 21 kts 307°
2026-04-26 22:53 4.70679 -74.16063 8371 ft 22 kts 307°
2026-04-26 22:54 4.70773 -74.16187 8371 ft 23 kts 307°
2026-04-26 22:54 4.70870 -74.16315 8371 ft 23 kts 307°
2026-04-26 22:54 4.70971 -74.16446 8371 ft 24 kts 308°
2026-04-26 22:54 4.71073 -74.16583 8371 ft 25 kts 307°
2026-04-26 22:55 4.71167 -74.16708 8371 ft 18 kts 307°
2026-04-26 22:55 4.71179 -74.16813 8371 ft 17 kts 227°
2026-04-26 22:55 4.71081 -74.16881 8371 ft 17 kts 210°
2026-04-26 22:55 4.71006 -74.16851 8372 ft 12 kts 126°
2026-04-26 22:56 4.70947 -74.16774 8372 ft 19 kts 128°
2026-04-26 22:56 4.70763 -74.16528 8372 ft 77 kts 126°
2026-04-26 22:56 4.70310 -74.15928 8372 ft 136 kts 127°
2026-04-26 22:56 4.69642 -74.15043 8374 ft 182 kts 126°
2026-04-26 22:57 4.68864 -74.14009 8966 ft 187 kts 125°
2026-04-26 22:57 4.68083 -74.12979 9808 ft 185 kts 127°
2026-04-26 22:57 4.67294 -74.11937 10384 ft 185 kts 127°
2026-04-26 22:57 4.66400 -74.11047 10860 ft 186 kts 155°
2026-04-26 22:58 4.65136 -74.10788 11294 ft 191 kts 187°
2026-04-26 22:58 4.63848 -74.11303 11470 ft 211 kts 221°
2026-04-26 22:58 4.63042 -74.12575 11638 ft 232 kts 256°
2026-04-26 22:58 4.62709 -74.14233 11804 ft 256 kts 259°
2026-04-26 22:59 4.62373 -74.16070 12177 ft 275 kts 259°
2026-04-26 22:59 4.62026 -74.17980 12860 ft 280 kts 259°
2026-04-26 22:59 4.61673 -74.19914 13612 ft 283 kts 259°
2026-04-26 22:59 4.61315 -74.21845 14319 ft 286 kts 259°
2026-04-26 23:00 4.60945 -74.23827 14970 ft 289 kts 259°
2026-04-26 23:00 4.60575 -74.25803 15595 ft 293 kts 259°
2026-04-26 23:00 4.59972 -74.27775 15923 ft 298 kts 240°
2026-04-26 23:00 4.58782 -74.29556 16153 ft 316 kts 235°
2026-04-26 23:01 4.57500 -74.31391 16704 ft 323 kts 235°
2026-04-26 23:01 4.56199 -74.33248 17311 ft 327 kts 235°
2026-04-26 23:01 4.54881 -74.35134 17934 ft 331 kts 235°
2026-04-26 23:01 4.53572 -74.37014 18505 ft 334 kts 236°
2026-04-26 23:02 4.52220 -74.38963 18778 ft 349 kts 236°
2026-04-26 23:02 4.50795 -74.41018 18869 ft 367 kts 235°
2026-04-26 23:02 4.49312 -74.43155 19104 ft 379 kts 236°
2026-04-26 23:02 4.47796 -74.45341 19540 ft 383 kts 235°
2026-04-26 23:03 4.46262 -74.47549 20024 ft 387 kts 235°
2026-04-26 23:03 4.44731 -74.49752 20488 ft 390 kts 235°
2026-04-26 23:03 4.43171 -74.51999 20904 ft 393 kts 235°
2026-04-26 23:03 4.41605 -74.54256 21334 ft 397 kts 235°
2026-04-26 23:04 4.40039 -74.56518 21765 ft 400 kts 235°
2026-04-26 23:04 4.38443 -74.58823 21884 ft 401 kts 235°
2026-04-26 23:04 4.36873 -74.61088 21888 ft 389 kts 235°
2026-04-26 23:04 4.35333 -74.63308 21858 ft 385 kts 235°
2026-04-26 23:05 4.33826 -74.65479 21815 ft 383 kts 235°
2026-04-26 23:05 4.32300 -74.67674 21788 ft 383 kts 235°
2026-04-26 23:05 4.30772 -74.69869 21766 ft 383 kts 235°
2026-04-26 23:05 4.29245 -74.72065 21753 ft 383 kts 235°
2026-04-26 23:06 4.27725 -74.74259 21754 ft 383 kts 235°
2026-04-26 23:06 4.26207 -74.76455 21755 ft 383 kts 235°
2026-04-26 23:06 4.24693 -74.78645 21755 ft 383 kts 235°
2026-04-26 23:06 4.23176 -74.80838 21757 ft 383 kts 235°
2026-04-26 23:07 4.21677 -74.83004 21969 ft 383 kts 235°
2026-04-26 23:07 4.20661 -74.84470 21969 ft 383 kts 235°
2026-04-26 23:07 4.18738 -74.87475 21968 ft 383 kts 243°
2026-04-26 23:07 4.17537 -74.89832 21968 ft 383 kts 243°
2026-04-26 23:08 4.16323 -74.92205 21967 ft 383 kts 243°
2026-04-26 23:08 4.15102 -74.94590 21966 ft 383 kts 243°
2026-04-26 23:08 4.13884 -74.96968 21964 ft 383 kts 243°
2026-04-26 23:08 4.12667 -74.99345 21965 ft 383 kts 243°
2026-04-26 23:09 4.11449 -75.01719 21947 ft 383 kts 243°
2026-04-26 23:09 4.10250 -75.04056 21949 ft 383 kts 243°
2026-04-26 23:09 4.09036 -75.06428 21951 ft 383 kts 243°
2026-04-26 23:09 4.07823 -75.08796 21929 ft 383 kts 243°
2026-04-26 23:10 4.06596 -75.11190 21930 ft 383 kts 243°
2026-04-26 23:10 4.05380 -75.13561 21923 ft 383 kts 243°
2026-04-26 23:10 4.04159 -75.15942 21923 ft 383 kts 243°
2026-04-26 23:10 4.02951 -75.18295 21926 ft 384 kts 243°
2026-04-26 23:11 4.01729 -75.20675 21922 ft 384 kts 243°
2026-04-26 23:11 4.00508 -75.23053 21939 ft 384 kts 243°
2026-04-26 23:11 3.99287 -75.25433 21939 ft 384 kts 243°
2026-04-26 23:11 3.98061 -75.27823 21912 ft 384 kts 243°
2026-04-26 23:12 3.96838 -75.30211 21909 ft 384 kts 243°
2026-04-26 23:12 3.95620 -75.32591 21913 ft 384 kts 243°
2026-04-26 23:12 3.94393 -75.34979 21912 ft 384 kts 243°
2026-04-26 23:12 3.93184 -75.37329 21941 ft 384 kts 243°
2026-04-26 23:13 3.91959 -75.39712 21940 ft 384 kts 243°
2026-04-26 23:13 3.90731 -75.42101 21943 ft 384 kts 243°
2026-04-26 23:13 3.89509 -75.44477 21945 ft 384 kts 243°
2026-04-26 23:13 3.88282 -75.46867 21945 ft 384 kts 243°
2026-04-26 23:14 3.87062 -75.49246 21943 ft 384 kts 243°
2026-04-26 23:14 3.85862 -75.51643 21992 ft 384 kts 244°
2026-04-26 23:14 3.84722 -75.54031 21989 ft 384 kts 245°
2026-04-26 23:14 3.83590 -75.56461 21950 ft 384 kts 245°
2026-04-26 23:15 3.82464 -75.58897 21948 ft 384 kts 245°
2026-04-26 23:15 3.81342 -75.61319 21949 ft 384 kts 245°
2026-04-26 23:15 3.80211 -75.63740 21947 ft 384 kts 244°
2026-04-26 23:15 3.79088 -75.66129 21996 ft 384 kts 244°
2026-04-26 23:16 3.77945 -75.68547 21995 ft 384 kts 244°
2026-04-26 23:16 3.76798 -75.70971 21998 ft 383 kts 244°
2026-04-26 23:16 3.76039 -75.72578 21997 ft 383 kts 244°
2026-04-26 23:16 3.74529 -75.75779 21999 ft 383 kts 244°
2026-04-26 23:17 3.73388 -75.78199 21997 ft 383 kts 244°
2026-04-26 23:17 3.72631 -75.79800 22028 ft 383 kts 244°
2026-04-26 23:17 3.71487 -75.82217 22030 ft 383 kts 244°
2026-04-26 23:17 3.69976 -75.85403 21844 ft 376 kts 244°
2026-04-26 23:18 3.69224 -75.86992 21659 ft 371 kts 244°
2026-04-26 23:18 3.68135 -75.89298 21412 ft 368 kts 244°
2026-04-26 23:18 3.67047 -75.91605 21081 ft 364 kts 244°
2026-04-26 23:18 3.65969 -75.93889 20610 ft 362 kts 244°
2026-04-26 23:19 3.64891 -75.96171 20159 ft 362 kts 244°
2026-04-26 23:19 3.63814 -75.98446 19685 ft 361 kts 244°
2026-04-26 23:19 3.62752 -76.00690 19235 ft 360 kts 245°
2026-04-26 23:19 3.61680 -76.02955 18777 ft 360 kts 245°
2026-04-26 23:20 3.60606 -76.05225 18312 ft 360 kts 245°
2026-04-26 23:20 3.59536 -76.07489 17799 ft 358 kts 245°
2026-04-26 23:20 3.58479 -76.09729 17374 ft 354 kts 245°
2026-04-26 23:20 3.57428 -76.11961 16943 ft 352 kts 245°
2026-04-26 23:21 3.56389 -76.14167 16498 ft 350 kts 245°
2026-04-26 23:21 3.55346 -76.16377 16071 ft 348 kts 245°
2026-04-26 23:21 3.54310 -76.18570 15624 ft 347 kts 245°
2026-04-26 23:21 3.53292 -76.20723 15194 ft 346 kts 244°
2026-04-26 23:22 3.52259 -76.22905 14750 ft 345 kts 244°
2026-04-26 23:22 3.51247 -76.25041 14538 ft 328 kts 243°
2026-04-26 23:22 3.50027 -76.26890 14044 ft 319 kts 227°
2026-04-26 23:22 3.48366 -76.28327 13497 ft 313 kts 212°
2026-04-26 23:23 3.46435 -76.29246 13073 ft 302 kts 197°
2026-04-26 23:23 3.44419 -76.29729 12681 ft 291 kts 192°
2026-04-26 23:23 3.42469 -76.30154 12322 ft 282 kts 192°
2026-04-26 23:23 3.40620 -76.30561 12244 ft 262 kts 192°
2026-04-26 23:24 3.38921 -76.30937 12140 ft 245 kts 192°
2026-04-26 23:24 3.37300 -76.31299 12035 ft 234 kts 192°
2026-04-26 23:24 3.35715 -76.31652 11935 ft 231 kts 192°
2026-04-26 23:24 3.34142 -76.32003 11838 ft 231 kts 192°
2026-04-26 23:25 3.32582 -76.32350 11743 ft 229 kts 192°
2026-04-26 23:25 3.31046 -76.32693 11612 ft 229 kts 192°
2026-04-26 23:25 3.29470 -76.33043 11219 ft 233 kts 192°
2026-04-26 23:25 3.27896 -76.33392 10861 ft 231 kts 193°
2026-04-26 23:26 3.26443 -76.34022 10518 ft 228 kts 220°
2026-04-26 23:26 3.25505 -76.35268 10194 ft 224 kts 250°
2026-04-26 23:26 3.25305 -76.36767 9832 ft 222 kts 279°
2026-04-26 23:26 3.25621 -76.38272 9472 ft 220 kts 282°
2026-04-26 23:27 3.25951 -76.39764 9113 ft 218 kts 282°
2026-04-26 23:27 3.26357 -76.41210 8788 ft 213 kts 298°
2026-04-26 23:27 3.27341 -76.42256 8435 ft 206 kts 331°
2026-04-26 23:27 3.28718 -76.42593 8138 ft 206 kts
2026-04-26 23:28 3.30141 -76.42371 7738 ft 208 kts
2026-04-26 23:28 3.31554 -76.42121 7242 ft 209 kts
2026-04-26 23:28 3.32970 -76.41873 6914 ft 204 kts
2026-04-26 23:28 3.34353 -76.41633 6647 ft 197 kts
2026-04-26 23:29 3.35670 -76.41405 6407 ft 188 kts
2026-04-26 23:29 3.36932 -76.41186 6171 ft 180 kts
2026-04-26 23:29 3.38140 -76.40976 5943 ft 172 kts
2026-04-26 23:29 3.39302 -76.40775 5733 ft 166 kts
2026-04-26 23:30 3.40419 -76.40581 5519 ft 164 kts
2026-04-26 23:30 3.41542 -76.40386 5299 ft 164 kts
2026-04-26 23:30 3.42661 -76.40192 5105 ft 163 kts
2026-04-26 23:30 3.43776 -76.39998 4907 ft 162 kts
2026-04-26 23:31 3.44862 -76.39810 4727 ft 157 kts
2026-04-26 23:31 3.45934 -76.39624 4556 ft 153 kts
2026-04-26 23:31 3.46975 -76.39443 4369 ft 151 kts
2026-04-26 23:31 3.48006 -76.39264 4173 ft 150 kts
2026-04-26 23:32 3.49019 -76.39088 3982 ft 149 kts
2026-04-26 23:32 3.50043 -76.38907 3802 ft 148 kts
2026-04-26 23:32 3.51062 -76.38727 3563 ft 149 kts
2026-04-26 23:32 3.52060 -76.38558 3385 ft 142 kts
2026-04-26 23:33 3.53038 -76.38392 3199 ft 141 kts
2026-04-26 23:33 3.53931 -76.38235 3165 ft 112 kts 10°
2026-04-26 23:33 3.54597 -76.38121 3165 ft 86 kts
2026-04-26 23:33 3.55017 -76.38049 3166 ft 25 kts
2026-04-26 23:34 3.55098 -76.38090 3168 ft 14 kts 287°
2026-04-26 23:34 3.55109 -76.38183 3169 ft 12 kts 248°
2026-04-26 23:34 3.55051 -76.38203 3168 ft 8 kts 191°
2026-04-26 23:34 3.54998 -76.38215 3168 ft 7 kts 192°
2026-04-26 23:35 3.54950 -76.38223 3168 ft 7 kts 189°
2026-04-26 23:35 3.54908 -76.38230 3167 ft 6 kts 190°
2026-04-26 23:35 3.54870 -76.38237 3167 ft 5 kts 190°
2026-04-26 23:35 3.54806 -76.38248 3167 ft 13 kts 190°
2026-04-26 23:36 3.54699 -76.38267 3166 ft 16 kts 189°
2026-04-26 23:36 3.54588 -76.38285 3167 ft 16 kts 188°
2026-04-26 23:36 3.54483 -76.38302 3166 ft 15 kts 191°
2026-04-26 23:36 3.54387 -76.38319 3165 ft 13 kts 190°
2026-04-26 23:37 3.54300 -76.38335 3165 ft 12 kts 190°
2026-04-26 23:37 3.54222 -76.38348 3165 ft 11 kts 190°
2026-04-26 23:37 3.54151 -76.38361 3164 ft 10 kts 190°
2026-04-26 23:37 3.54089 -76.38378 3165 ft 9 kts 207°
2026-04-26 23:38 3.54045 -76.38413 3164 ft 8 kts 220°
2026-04-26 23:38 3.54003 -76.38448 3163 ft 10 kts 220°
2026-04-26 23:38 3.53935 -76.38507 3163 ft 13 kts 220°
2026-04-26 23:38 3.53866 -76.38562 3163 ft 12 kts 219°
2026-04-26 23:39 3.53796 -76.38584 3162 ft 10 kts 159°
2026-04-26 23:39 3.53738 -76.38552 3162 ft 8 kts 160°
2026-04-26 23:39 3.53718 -76.38577 3162 ft 4 kts 247°
2026-04-26 23:39 3.53709 -76.38598 3163 ft 3 kts 250°
2026-04-26 23:40 3.53708 -76.38602 3164 ft 0 kts 251°